Location: Hurstbourne Priors
(51.2000°N, 1.3667°W)
Time: 22:02:06
(UTC+00:00)

Altair - Pass Details

Date: 18 April 2021
Orbit: 1501 x 1683 km, 47.2° (Epoch: 13 May)

Event Time Altitude Azimuth Distance (km) Brightness Sun altitude
Rises 11:59:19 0° 285° (WNW) 4,752 10.0 49.8°
Reaches altitude 10° 12:02:38 10° 279° (W) 3,741 9.6 49.8°
Maximum altitude 12:11:12 42° 213° (SSW) 2,063 9.8 49.8°
Drops below altitude 10° 12:19:34 10° 147° (SSE) 3,648 10.1 49.7°
Sets 12:22:46 0° 140° (SE) 4,623 10.4 49.6°
